Preview of NWS' New Version of Forecast
This preview is not operational and should not be used for support decisions.
Latest weather observations around

Cheyenne, Cheyenne Airport (KCYS)

Using English Units (Switch to International System of Units)
Date/ Time (MDT) Wind (mph) Vis. (mi) Weather Sky Cond. Temp (°F) Rel. Humidity Wind Chill (°F) Heat Index (°F) Pressure Precip. (in)
Air Dwpt 6 hour Altimeter (inHg) Sea level (inHg) 1 hr 3 hr 6 hr
Max Min
Notice The following observation data may not be complete
Jun 19 03:53     Clear            %              
Notice The following observation data may not be complete
Jun 19 02:53     Clear            %              
Notice The following observation data may not be complete
Jun 19 01:53     Clear            %              
Notice The following observation data may not be complete
Jun 19 00:53     Clear            %              
Notice The following observation data may not be complete
Jun 18 23:53     Clear            %              
Notice The following observation data may not be complete
Jun 18 22:53     Clear            %              
Jun 18 21:53 N 5 10 Mostly Clear FEW095 54 48     80%     30.07 29.85      
Jun 18 20:53 SSW 3 10 Mostly Cloudy SCT100 BKN170 57 48     72%     30.08 29.87      
Jun 18 19:53 N 5 10 Mostly Cloudy BKN042 57 48     72%              
Jun 18 18:53 SSW 5 10 Mostly Cloudy SCT047 BKN095 57 52     83%     30.08        
Jun 18 16:53 NNW 5 10 Mostly Cloudy BKN070 57 50     77%              
Jun 18 15:53 Calm 10 Cloudy OVC060 52 48     86%     30.1        
Jun 18 15:42 W 7 7 Rain OVC060 52 46     80%     30.12        
Jun 18 15:27 W 7 7 Rain OVC060 52 46     80%     30.12        
Jun 18 15:00 W 7 7 Rain OVC060 52 46     80%     30.12        
Jun 18 14:53 NNW 8 10 Cloudy OVC021 52 46     80%              
Jun 18 14:35 SSW 9 10 Cloudy OVC025 55 54     96%     30.1        
Jun 18 14:05 SSW 9 10 Cloudy OVC025 55 54     96%     30.1        
Notice The following observation data may not be complete
Jun 18 14:00     Thunderstorms            %              
Jun 18 13:53 SSE 6 10 Thunderstorms OVC025 59 52     78%     30.1        
Jun 18 13:38 SSE 6 10 Thunderstorms OVC025 59 52     78%     30.1        
Jun 18 13:20 SSE 6 10 Cloudy OVC025 59 52     78%     30.1        
Jun 18 13:05 SSE 6 10 Cloudy OVC025 59 52     78%     30.1        
Jun 18 12:53 ESE 6 10 Mostly Cloudy BKN025 59 52     78%     30.11        
Jun 18 11:53 E 9 10 Mostly Cloudy BKN020 57 52     83%     30.12        
Jun 18 10:53 ESE 5 10 Cloudy BKN015 OVC040 61 50     67%     30.14        
Jun 18 09:53 Calm 10 Mostly Cloudy BKN015 BKN070 57 50     77%     30.14        
Jun 18 09:00 Calm 10 Partly Cloudy FEW004 SCT070 55 52     89%     30.14        
Jun 18 08:53 Calm 10 Mostly Cloudy BKN065 54 52     93%     30.14        
Jun 18 07:53 Calm 10 Mostly Cloudy BKN065 54 52     93%     30.14        
Jun 18 07:35 S 3 10 Mostly Cloudy BKN065 52 52     100%     30.14        
Jun 18 06:53 S 3 3 Cloudy OVC015 52 50     93%     30.14        
Jun 18 06:01 Calm 2 Fog/Mist OVC025 52 50     93%     30.13        
Notice The following observation data may not be complete
Jun 18 05:53     Clear            %     30.12        
Notice The following observation data may not be complete
Jun 18 04:53     Clear            %     30.12        
Notice The following observation data may not be complete
Jun 18 03:53     Clear            %     30.12        
Notice The following observation data may not be complete
Jun 18 02:53     Clear            %     30.13        
Notice The following observation data may not be complete
Jun 18 01:53     Clear            %     30.13        
Notice The following observation data may not be complete
Jun 18 00:53     Clear            %     30.17        
Notice The following observation data may not be complete
Jun 17 23:53     Clear            %     30.18       0
Notice The following observation data may not be complete
Jun 17 22:53     Clear            %              
Notice The following observation data may not be complete
Jun 17 21:53     Clear            %     30.18        
Notice The following observation data may not be complete
Jun 17 20:53     Clear            %     30.15     0  
Jun 17 19:53 NE 15 10 Cloudy SCT024 BKN085 OVC120 55 49     80%     30.15 29.98      
Jun 17 19:40 NE 13 10 Cloudy FEW022 BKN085 OVC120 55 49     80%     30.15        
Jun 17 19:30 NE 11 10 Cloudy BKN022 BKN038 OVC085 55 49     80%     30.15        
Jun 17 18:53 NNE 13 10 Cloudy OVC080 62 50     65%     30.11 29.93 0    
Jun 17 17:53 NE 5 10 Cloudy OVC085 64 45     50%     30.11 29.93     1
Jun 17 16:53 NNE 5 10 Clear CLR 64 50     60%     30.1 29.92 0    
Jun 17 16:03 NNW 3 10 Light Rain SCT042 BKN070 59 50     72%     30.12   0    
Jun 17 15:53 Calm 8 Light Rain FEW040 BKN048 OVC070 54 49     83%       29.97 0    
Jun 17 15:46 NNW 6 3 Light Rain and Fog/Mist BKN050 OVC070 53 49     86%         0    
Jun 17 15:36 WNW 7 1.75 Thunderstorms and Rain and Fog/Mist BKN046 OVC070 52 49     89%     30.15   0    
Jun 17 15:17 W 15 3 Thunderstorms and Rain and Fog/Mist FEW015 BKN034 OVC070 52 48     86%     30.16   0    
Jun 17 15:11 W 17 1 Thunderstorms and Heavy Rain and Fog/Mist FEW015 BKN034 OVC070 51 48     89%     30.17   0    
Jun 17 15:00   1.5 Thunderstorms and Heavy Rain and Fog/Mist SCT017 BKN047 OVC060 53 49     86%     30.16   0    
Jun 17 14:53 WSW 14 10 Thunderstorms and Heavy Rain FEW015 BKN050 OVC070 59 54     83%     30.15 29.98 0 0  
Jun 17 14:39 NNE 16 1.75 Thunderstorms and Heavy Rain FEW034 BKN060 OVC075 60 54     80%     30.11   0    
Jun 17 14:36 NNE 14 2 Heavy Rain FEW039 BKN065 OVC080 60 54     80%     30.11   0    
Jun 17 14:21 NNE 15 10 Thunderstorms SCT038 BKN060 OVC100 62 53     72%     30.11        
Jun 17 13:53 NE 11 10 Mostly Cloudy FEW036 SCT043 BKN100 70 51     51%     30.11 29.9      
Jun 17 12:53 ENE 8 10 Cloudy BKN035 OVC043 66 50     56%     30.13 29.93      
Jun 17 11:53 Calm 10 Mostly Cloudy BKN033 BKN100 66 50     56%       29.94      
Jun 17 10:53 E 6 10 Mostly Cloudy FEW034 BKN120 64 52     65%     30.14 29.93      
Jun 17 09:53 3 10 Mostly Cloudy BKN100 61 49     64%     30.14 29.95      
Jun 17 08:53 Calm 10 Mostly Clear FEW110 61 48     62%     30.13 29.94      
Jun 17 07:53 W 7 10 Mostly Clear FEW100 56 50     80%     30.12 29.93      
Jun 17 06:53 W 7 10 Cloudy BKN100 OVC110 52 48     86%     30.12 29.93      
Jun 17 05:53 W 7 10 Mostly Cloudy BKN100 51 47     86%     30.12 29.93     0
Jun 17 04:53 NW 10 10 Mostly Cloudy FEW055 BKN100 52 48     86%     30.1 29.91 0    
Jun 17 03:53 Calm 10 Light Rain SCT047 BKN075 OVC100 53 48     83%     30.1 29.91 0    
Jun 17 03:40 WNW 3 5 Thunderstorms and Rain and Fog/Mist FEW027 SCT034 OVC049 53 49     86%     30.11   0    
Jun 17 03:32 E 7 2.5 Thunderstorms and Heavy Rain and Fog/Mist SCT025 BKN037 OVC046 52 48     86%     30.11   0    
Jun 17 03:24 NNW 8 6 Thunderstorms and Rain FEW018 BKN025 OVC046 53 48     83%     30.13   0    
Jun 17 02:53 NNW 10 10 Cloudy BKN022 BKN037 OVC055 54 50     86%     30.13 29.94      
Jun 17 01:53 ENE 3 7 Mostly Clear FEW050 52 50     93%     30.1 29.91      
Jun 17 00:53 W 3 10 Mostly Cloudy SCT080 BKN100 54 52     93%       29.91      
Jun 16 23:53 S 6 10 Clear   54 52     93%     30.11 29.92 0   0
Jun 16 23:13 E 9 10 Partly Cloudy FEW031 SCT070 55 52     89%     30.11   0    
Jun 16 22:53 Calm 10 Thunderstorms and Rain FEW016 BKN031 OVC065 57 53     87%     30.12 29.95 0    
Jun 16 22:50 NNE 3 7 Thunderstorms and Rain FEW016 BKN029 OVC075 57 54     88%     30.13   0    
Jun 16 21:53 SSE 5 10 Mostly Cloudy BKN090 57 52     83%     30.11 29.93      
Jun 16 20:53 E 7 10 Partly Cloudy SCT090 57 50     77%       29.91      
Jun 16 19:53 E 7 10 Clear CLR 60 49     67%     30.07 29.89      
Jun 16 18:53 NE 9 10 Clear CLR 63 50     63%     30.05 29.86      
Jun 16 17:53 NNE 10 10 Mostly Clear FEW080 65 46     50%       29.86     0
Jun 16 16:53 NNE 10 10 Clear CLR 66 54     65%     30.05 29.85      
Jun 16 15:53 Calm 10 Mostly Clear FEW075 FEW110 62 54     75%     30.07 29.9 0    
Jun 16 14:53 NW 8 10 Cloudy OVC080 63 51     65%     30.1 29.93 0 0  
Jun 16 13:53 3 10 Mostly Cloudy SCT070 BKN100 64 50     60%     30.08 29.9      
Jun 16 12:53 ESE 8 10 Mostly Cloudy BKN110 64 50     60%     30.1 29.92      
Jun 16 12:19 NE 5 10 Partly Cloudy SCT019 61 50     67%     30.1        
Jun 16 12:07 NNE 7 10 Mostly Cloudy BKN019 62 50     65%     30.1        
Jun 16 11:53 7 10 Partly Cloudy SCT018 63 51     65%     30.11 29.93     0
Jun 16 10:53 NE 8 10 Mostly Cloudy SCT013 BKN100 57 50     77%     30.1 29.95      
Jun 16 10:50 ENE 9 10 Mostly Cloudy BKN013 BKN110 57 50     77%     30.1        
Jun 16 09:53 NNE 5 10 Mostly Cloudy BKN100 57 49     74%     30.09 29.92      
Jun 16 08:53 NNW 9 10 Mostly Cloudy SCT010 BKN110 55 49     80%     30.12 29.96   0  
Jun 16 08:20 NW 8 10 Partly Cloudy SCT009 55 49     80%     30.11        
Jun 16 07:53 NNW 9 10 Cloudy OVC007 54 49     83%       29.94      
Jun 16 07:07 NW 6 10 Mostly Cloudy BKN007 BKN080 53 49     86%     30.12        
Jun 16 06:53 WNW 9 10 Cloudy SCT006 OVC080 52 49     89%     30.12 29.97 0    
Jun 16 05:53 N 7 10 Cloudy OVC085 52 48     86%     30.12 29.95      
Jun 16 04:53 N 13 10 Cloudy SCT085 OVC100 52 48     86%     30.11 29.93      
May 14 17:53 NNE 20 10 Mostly Cloudy and Windy BKN085 55 41     59%     30.12 29.98     0
May 14 09:53 WSW 3 10 Clear CLR 56 47     72%     30.11 29.96      
May 14 04:42 S 7 0.25 Fog VV002 45 45     100% 41   30.1        
May 14 04:14 SSE 5 8 Partly Cloudy SCT001 42 42     100% 39   30.09        
May 14 00:53 NW 5 10 Partly Cloudy SCT100 48 48     100% 46   30.11 29.96      
May 13 10:53 5 10 Cloudy BKN015 OVC020 53 48     83%     30.08 29.95      
May 13 03:40 S 3 1.25 Fog/Mist OVC002 47 47     100% 46   30.04        
May 13 00:15 SE 10 3 Fog/Mist OVC002 46 46     100% 41   30.05        
May 12 14:53 SE 13 10 Cloudy BKN014 OVC020 54 49     83%     30 29.88      
May 12 07:53 ENE 6 2.5 Fog/Mist OVC005 42 42     100% 38   30.03 29.93      
May 11 20:38 E 18 1.75 Light Rain and Fog/Mist OVC002 51 51     100%     29.88   0    
Jun 11 04:53 N 20 10 Clear and Windy CLR 56 45     67%     29.8 29.53      
Jun 10 02:53 NNW 5 10 Clear CLR 59 34     39%     29.73 29.45      
Jun 09 11:53 W 23 10 Clear and Windy CLR 79 29     16%   77 29.93 29.65      
Jun 08 10:53 SSE 8 10 Clear CLR 71 52     51%   70 30.11 29.88      
Jun 07 17:32 WSW 13 10 Mostly Clear FEW090 FEW110 72 52     49%   71 30.13        
Jun 06 13:53 6 10 Partly Cloudy SCT050 70 50     49%     30.27 30.04      
Jun 05 20:53 Calm 10 Clear   67 44     44%     30.15 29.91      
Jun 05 17:53 N 15 10 Clear CLR 70 41     35%     30.11 29.91      
Jun 05 14:53 SW 20 10 Clear and Windy CLR 77 46     33%   76 30.1 29.86